Location: Observatory
(52.1446°N, 0.4624°W)
Time: 06:24:27
(UTC+00:00)

ISS - Pass Details

Date: 13 December 2017
Orbit: 403 x 407 km, 51.6° (Epoch: 12 December)

Event Time Altitude Azimuth Distance (km) Brightness Sun altitude
Rises 18:36:19 0° 279° (W) 2,331 1.3 -24.1°
Reaches altitude 10° 18:39:05 10° 254° (WSW) 1,466 0.0 -24.6°
Maximum altitude 18:40:58 14° 219° (SW) 1,223 -0.9 -24.9°
Enters shadow 18:41:49 13° 201° (SSW) 1,275 -1.0 -25.0°
